CAPE
0 0 0 0 0 0 0 0 0 0 0 0 0 3 3 38 123 168 172 169 101 45 37 25 20 12 3 2 1 1 1 1 1 1 0 0 0 0 0 0 0 0 0
0 0 0 0 0 0 0 0 0 0 0 0 0 0 2 3 27 70 109 152 147 122 71 56 16 5 6 11 8 3 1 1 2 3 0 0 0 0 0 0 1 0 3
0 0 0 0 0 0 0 0 0 0 0 0 0 0 0 3 5 17 54 80 112 135 103 93 58 52 11 12 14 10 2 1 2 1 1 0 0 3 4 4 0 5 2
0 0 0 0 0 0 0 0 0 0 1 2 2 1 0 0 2 2 2 7 42 54 75 87 91 70 50 45 36 24 21 7 2 3 1 0 0 3 3 0 0 5 4
0 0 0 0 0 0 0 0 0 0 1 0 0 0 0 1 1 1 3 2 1 1 14 58 58 59 48 64 62 49 28 10 2 0 0 0 0 0 0 0 0 2 6
0 0 0 0 0 0 0 0 0 0 0 1 0 0 0 0 0 1 2 3 2 4 2 1 0 0 0 0 0 0 0 4 3 0 0 0 0 0 1 0 0 2 0
0 0 0 0 0 0 0 0 0 0 0 1 0 0 1 0 0 0 0 0 0 4 5 2 0 0 0 0 0 0 0 0 0 0 0 0 0 0 0 1 0 0 0
0 0 0 0 0 0 0 0 0 0 0 2 1 1 1 1 0 0 0 0 0 0 2 1 0 0 0 0 0 0 0 1 1 0 0 0 0 0 0 0 0 3 3
0 0 0 0 0 0 0 0 0 0 2 4 3 2 1 1 1 0 0 0 0 0 0 0 0 0 0 0 0 0 0 0 2 1 1 0 0 0 2 2 1 1 0
0 0 0 0 0 0 0 0 0 1 4 4 4 2 2 1 0 0 0 0 0 0 0 0 0 0 0 0 0 0 0 0 3 3 1 2 1 3 3 0 1 0 0
0 0 0 0 0 0 0 0 1 2 4 4 3 1 1 1 1 1 0 1 0 0 0 0 0 0 0 1 1 1 0 0 2 0 1 2 2 3 3 1 0 0 0
0 0 0 0 0 0 0 2 2 1 3 1 1 1 1 0 0 0 0 1 3 3 1 0 1 1 1 2 3 2 2 0 1 1 1 1 1 2 1 0 0 0 0
0 0 0 0 0 0 0 1 1 0 0 0 2 2 2 1 0 0 1 1 2 1 0 0 1 1 2 2 2 1 1 0 1 1 1 1 2 1 1 0 0 0 0
0 0 0 0 0 0 0 0 1 0 0 1 1 2 2 1 1 0 0 0 0 0 0 0 1 0 0 0 0 0 1 1 2 2 2 2 1 1 0 0 0 0 0
0 0 0 0 0 0 0 1 0 0 1 0 0 0 1 1 1 0 0 0 1 1 0 0 0 0 0 0 0 0 0 0 0 0 0 0 0 0 0 0 0 0 0
0 0 0 0 0 0 0 0 0 0 2 3 3 1 0 1 1 1 3 2 1 1 0 0 0 0 0 0 0 0 0 0 0 0 0 0 0 0 0 0 0 0 0
0 0 0 0 0 0 0 0 0 0 0 0 2 1 4 5 2 0 0 4 4 0 0 0 0 0 0 0 0 0 0 0 0 0 0 0 0 0 0 0 0 0 0
0 0 0 0 0 0 0 0 0 0 0 0 0 0 1 2 1 0 2 0 0 0 0 0 0 0 0 0 0 0 0 0 0 0 0 0 0 0 0 0 0 0 0
0 0 0 0 0 0 0 0 0 0 0 0 0 0 0 0 0 0 0 0 0 0 0 0 0 0 0 0 0 0 0 0 0 0 0 0 0 0 0 0 0 0 0
0 0 0 0 0 0 0 0 0 0 0 0 0 0 0 0 0 0 0 0 0 0 0 0 0 0 0 0 0 0 0 0 0 0 0 0 0 0 0 0 0 0 0
0 0 0 0 0 0 0 0 0 0 0 0 0 0 0 0 0 0 0 0 0 0 0 0 0 0 0 0 0 0 0 0 0 0 0 0 0 0 0 0 0 0 0
0 0 0 0 0 0 0 0 0 0 0 0 0 0 0 0 0 0 0 0 0 0 0 0 0 0 0 0 0 0 0 0 0 0 0 0 0 0 0 0 0 0 0
0 0 0 0 0 0 0 0 0 0 0 0 0 0 0 0 0 0 0 0 0 0 0 0 0 0 0 0 0 0 0 0 0 0 0 0 0 0 0 0 0 0 0
0 0 0 0 0 0 0 0 0 0 0 0 0 0 0 0 0 0 0 0 0 0 0 0 0 0 0 0 0 0 0 0 0 0 0 0 0 0 0 0 0 0 0
0 0 0 0 0 0 0 0 0 0 0 0 0 0 0 0 0 0 0 0 0 0 0 0 0 0 0 0 0 0 0 0 0 0 0 0 0 0 0 0 0 0 0
0 0 0 0 0 0 0 0 0 0 0 0 0 0 0 0 0 0 0 0 0 0 0 0 0 0 0 0 0 0 0 0 0 0 0 0 0 0 0 0 0 0 0
CIN
-0 -0 -0 -0 -0 -0 -0 -0 -0 -0 -0 -0 -0 -0 -47 -77 -16 -3 -5 -5 -6 -22 -51 -90 -124 -141 -131 -47 -0 -0 -0 -0 -0 -0 -0 -0 -0 -0 -0 -0 -0 -0 -0
-0 -0 -0 -0 -0 -0 -0 -0 -0 -0 -0 -0 -0 -0 -0 -0 -97 -33 -12 -2 -2 -3 -3 -10 -63 -50 -47 -51 -59 -62 -0 -2 -0 -9 -0 -0 -0 -0 -0 -0 -0 -0 -0
-0 -0 -0 -0 -0 -0 -0 -0 -0 -0 -0 -0 -0 -0 -0 -0 -0 -0 -55 -26 -6 -2 -1 -0 -5 -11 -36 -33 -41 -46 -54 -4 -45 -11 -0 -0 -0 -0 -0 -0 -0 -0 -0
-0 -0 -0 -0 -0 -0 -0 -0 -0 -0 -0 -0 -0 -0 -0 -0 -0 -0 -0 -1 -55 -28 -10 -2 -1 -4 -2 -11 -16 -48 -26 -26 -17 -32 -0 -0 -0 -0 -0 -0 -0 -0 -0
-0 -0 -0 -0 -0 -0 -0 -0 -0 -0 -0 -0 -0 -0 -0 -0 -0 -0 -0 -0 -0 -0 -20 -24 -20 -10 -14 -14 -18 -10 -16 -52 -29 -0 -0 -0 -0 -0 -0 -0 -0 -0 -0
-0 -0 -0 -0 -0 -0 -0 -0 -0 -0 -0 -0 -0 -0 -0 -0 -0 -0 -0 -0 -0 -0 -0 -0 -0 -0 -0 -0 -0 -0 -0 -77 -47 -0 -0 -0 -0 -0 -0 -0 -0 -0 -0
-0 -0 -0 -0 -0 -0 -0 -0 -0 -0 -0 -0 -0 -0 -0 -0 -0 -0 -0 -0 -0 -0 -0 -0 -0 -0 -0 -0 -0 -0 -0 -0 -0 -0 -0 -0 -0 -0 -0 -0 -0 -0 -0
-0 -0 -0 -0 -0 -0 -0 -0 -0 -0 -0 -0 -0 -0 -0 -0 -0 -0 -0 -0 -0 -0 -0 -0 -0 -0 -0 -0 -0 -0 -0 -0 -0 -0 -0 -0 -0 -0 -0 -0 -0 -0 -0
-0 -0 -0 -0 -0 -0 -0 -0 -0 -0 -0 -0 -0 -0 -0 -0 -0 -0 -0 -0 -0 -0 -0 -0 -0 -0 -0 -0 -0 -0 -0 -0 -0 -0 -0 -0 -0 -0 -0 -0 -0 -0 -0
-0 -0 -0 -0 -0 -0 -0 -0 -0 -0 -0 -0 -0 -0 -0 -0 -0 -0 -0 -0 -0 -0 -0 -0 -0 -0 -0 -0 -0 -0 -0 -0 -0 -0 -0 -0 -0 -0 -0 -0 -0 -0 -0
-0 -0 -0 -0 -0 -0 -0 -0 -0 -0 -0 -0 -0 -0 -0 -0 -0 -0 -0 -0 -0 -0 -0 -0 -0 -0 -0 -0 -0 -0 -0 -0 -0 -0 -0 -0 -0 -0 -0 -0 -0 -0 -0
-0 -0 -0 -0 -0 -0 -0 -0 -0 -0 -0 -0 -0 -0 -0 -0 -0 -0 -0 -0 -0 -0 -0 -0 -0 -0 -0 -0 -0 -0 -0 -0 -0 -0 -0 -0 -0 -0 -0 -0 -0 -0 -0
-0 -0 -0 -0 -0 -0 -0 -0 -0 -0 -0 -0 -0 -0 -0 -0 -0 -0 -0 -0 -0 -0 -0 -0 -0 -0 -0 -0 -0 -0 -0 -0 -0 -0 -0 -0 -0 -0 -0 -0 -0 -0 -0
-0 -0 -0 -0 -0 -0 -0 -0 -0 -0 -0 -0 -0 -0 -0 -0 -0 -0 -0 -0 -0 -0 -0 -0 -0 -0 -0 -0 -0 -0 -0 -0 -0 -0 -0 -0 -0 -0 -0 -0 -0 -0 -0
-0 -0 -0 -0 -0 -0 -0 -0 -0 -0 -1 -1 -0 -0 -0 -0 -0 -0 -0 -0 -0 -0 -0 -0 -0 -0 -0 -0 -0 -0 -0 -0 -0 -0 -0 -0 -0 -0 -0 -0 -0 -0 -0
-0 -0 -0 -0 -0 -0 -0 -0 -0 -0 -0 -0 -0 -0 -0 -0 -0 -0 -0 -0 -0 -0 -0 -0 -0 -0 -0 -0 -0 -0 -0 -0 -0 -0 -0 -0 -0 -0 -0 -0 -0 -0 -0
-0 -0 -0 -0 -0 -0 -0 -0 -0 -0 -0 -0 -0 -0 -0 -0 -0 -0 -0 -0 -0 -0 -0 -0 -0 -0 -0 -0 -0 -0 -0 -0 -0 -0 -0 -0 -0 -0 -0 -0 -0 -0 -0
-0 -0 -0 -0 -0 -0 -0 -0 -0 -0 -0 -0 -0 -0 -0 -0 -0 -0 -0 -0 -0 -0 -0 -0 -0 -0 -0 -0 -0 -0 -0 -0 -0 -0 -0 -0 -0 -0 -0 -0 -0 -0 -0
-0 -0 -0 -0 -0 -0 -0 -0 -0 -0 -0 -0 -0 -0 -0 -0 -0 -0 -0 -0 -0 -0 -0 -0 -0 -0 -0 -0 -0 -0 -0 -0 -0 -0 -0 -0 -0 -0 -0 -0 -0 -0 -0
-0 -0 -0 -0 -0 -0 -0 -0 -0 -0 -0 -0 -0 -0 -0 -0 -0 -0 -0 -0 -0 -0 -0 -0 -0 -0 -0 -0 -0 -0 -0 -0 -0 -0 -0 -0 -0 -0 -0 -0 -0 -0 -0
-0 -0 -0 -0 -0 -0 -0 -0 -0 -0 -0 -0 -0 -0 -0 -0 -0 -0 -0 -0 -0 -0 -0 -0 -0 -0 -0 -0 -0 -0 -0 -0 -0 -0 -0 -0 -0 -0 -0 -0 -0 -0 -0
-0 -0 -0 -0 -0 -0 -0 -0 -0 -0 -0 -0 -0 -0 -0 -0 -0 -0 -0 -0 -0 -0 -0 -0 -0 -0 -0 -0 -0 -0 -0 -0 -0 -0 -0 -0 -0 -0 -0 -0 -0 -0 -0
-0 -0 -0 -0 -0 -0 -0 -0 -0 -0 -0 -0 -0 -0 -0 -0 -0 -0 -0 -0 -0 -0 -0 -0 -0 -0 -0 -0 -0 -0 -0 -0 -0 -0 -0 -0 -0 -0 -0 -0 -0 -0 -0
-0 -0 -0 -0 -0 -0 -0 -0 -0 -0 -0 -0 -0 -0 -0 -0 -0 -0 -0 -0 -0 -0 -0 -0 -0 -0 -0 -0 -0 -0 -0 -0 -0 -0 -0 -0 -0 -0 -0 -0 -0 -0 -0
-0 -0 -0 -0 -0 -0 -0 -0 -0 -0 -0 -0 -0 -0 -0 -0 -0 -0 -0 -0 -0 -0 -0 -0 -0 -0 -0 -0 -0 -0 -0 -0 -0 -0 -0 -0 -0 -0 -0 -0 -0 -0 -0
-0 -0 -0 -0 -0 -0 -0 -0 -0 -0 -0 -0 -0 -0 -0 -0 -0 -0 -0 -0 -0 -0 -0 -0 -0 -0 -0 -0 -0 -0 -0 -0 -0 -0 -0 -0 -0 -0 -0 -0 -0 -0 -0
Wind_Speed
34 34 35 37 37 37 38 40 41 42 42 42 41 41 41 40 36 34 33 33 32 31 30 30 30 29 30 30 29 29 31 31 39 40 35 32 30 28 28 28 28 27 26
37 37 38 39 39 40 41 42 43 44 44 44 43 42 40 37 40 40 40 37 35 34 34 33 33 32 32 31 31 31 31 31 34 40 35 32 30 29 28 27 27 26 21
39 40 41 42 43 44 45 46 45 46 46 46 45 44 43 42 39 36 36 40 41 39 35 34 34 34 34 34 33 33 32 32 32 35 37 32 30 29 29 27 27 21 23
41 42 43 44 46 46 48 48 48 47 47 47 46 45 44 43 42 41 41 40 38 36 37 38 38 36 36 35 34 34 33 34 34 34 35 33 31 30 29 26 24 23 22
43 44 45 47 47 49 50 50 50 49 49 49 49 46 45 42 40 41 42 42 42 42 40 37 36 36 36 35 35 37 36 36 35 32 34 32 30 31 30 27 28 24 24
44 46 47 50 50 50 51 52 52 51 50 50 50 49 48 44 43 44 44 43 42 41 42 41 38 38 37 39 39 40 37 35 37 36 35 36 33 31 28 25 26 25 29
46 46 49 50 52 52 53 53 53 53 52 51 51 51 51 49 45 46 46 44 43 42 42 41 42 39 39 38 37 38 39 38 35 33 35 34 33 28 25 26 23 27 28
45 47 49 51 52 53 54 54 55 54 54 53 52 51 51 49 48 47 46 45 44 44 44 43 44 44 41 39 37 37 36 35 34 32 32 33 31 27 24 25 25 25 24
47 49 51 52 54 56 57 57 57 57 56 55 53 53 53 52 49 48 46 45 46 47 47 45 44 43 41 39 39 39 38 37 34 33 32 30 28 26 23 23 24 23 25
48 49 50 52 54 57 57 58 58 57 58 56 56 53 53 53 50 49 46 44 47 47 47 47 45 44 43 39 37 37 38 37 33 31 27 26 24 23 21 23 20 21 23
48 50 52 53 56 55 58 58 60 61 59 58 59 55 54 52 51 50 47 45 45 47 46 47 45 44 42 40 36 35 36 32 30 28 27 25 23 23 23 23 21 22 22
49 50 52 52 52 54 56 58 60 60 60 59 58 57 52 50 49 48 47 45 44 44 45 44 43 43 41 39 36 36 35 31 29 29 28 26 23 23 23 22 21 20 20
49 51 52 52 53 53 55 57 57 57 56 54 53 56 55 52 48 47 47 45 43 43 42 42 42 39 36 36 35 34 30 30 29 29 28 26 23 22 19 18 16 15 15
50 51 52 53 54 53 53 53 53 48 50 51 51 53 53 51 48 45 44 42 41 41 40 39 36 32 31 31 30 29 29 29 29 29 28 24 20 20 19 17 16 15 16
49 50 52 51 52 53 51 49 49 46 44 46 46 46 47 47 44 43 40 39 38 37 33 31 31 30 29 29 28 28 27 26 27 26 25 22 21 20 20 16 17 19 21
48 48 49 49 50 50 50 49 43 43 42 42 42 42 40 40 36 32 30 30 31 29 28 28 28 27 26 26 26 25 25 24 23 22 21 21 21 20 20 20 20 20 20
45 45 46 46 47 48 47 46 47 43 39 39 40 38 37 37 34 31 29 27 27 26 26 26 25 25 25 24 23 23 23 23 21 20 21 22 21 20 22 21 20 20 19
42 42 43 43 44 44 43 42 42 42 41 40 38 36 35 34 33 32 30 27 27 26 25 25 24 24 24 24 24 24 24 23 22 21 21 21 21 21 20 20 20 19 19
40 40 40 40 39 39 40 40 39 39 39 38 38 35 35 33 32 32 31 28 26 26 26 25 25 24 24 24 24 24 23 23 23 22 21 20 21 20 20 20 19 20 20
38 38 38 38 38 37 38 38 38 38 38 37 37 36 36 34 33 32 31 29 28 27 27 26 26 26 25 25 24 25 24 23 23 23 22 22 21 21 22 23 23 23 23
36 37 37 36 36 36 36 36 36 36 36 36 36 35 36 33 32 31 31 30 30 29 28 27 27 27 26 26 25 25 25 25 25 25 25 26 26 26 26 26 27 27 27
35 35 35 35 35 35 35 35 34 35 35 35 36 35 35 33 33 32 32 31 31 30 29 29 29 28 28 28 28 28 28 28 29 29 28 28 29 29 29 29 30 30 31
33 34 34 34 34 33 34 34 34 34 35 35 35 35 35 35 34 34 33 32 32 32 31 31 30 31 30 30 29 30 30 31 31 31 32 32 32 32 32 33 32 34 34
31 32 32 32 33 33 33 34 34 34 35 35 35 35 36 36 35 35 34 34 34 33 33 33 32 33 33 33 32 32 32 33 33 33 33 34 34 33 33 34 34 35 35
30 31 31 31 32 32 33 33 34 34 35 35 36 36 36 36 36 36 36 35 36 36 35 35 34 35 35 36 35 35 35 35 35 35 35 34 35 36 36 36 36 37 37
30 30 30 30 31 32 33 34 35 35 36 36 36 37 37 38 38 38 38 37 38 38 38 37 37 37 38 37 37 37 37 37 37 36 33 36 38 38 37 38 38 38 38
Wind_Direction
328 327 325 324 324 324 322 321 319 316 316 315 314 312 303 299 298 295 292 290 287 285 284 282 279 278 281 281 280 280 281 283 287 293 293 295 293 293 294 296 297 297 298
324 324 324 324 324 323 323 320 318 316 316 313 313 312 312 310 300 296 294 293 291 288 286 283 282 284 281 282 283 281 282 283 284 291 295 293 290 293 294 294 297 302 301
321 320 320 321 321 320 319 318 318 316 315 314 313 309 309 308 308 307 301 296 292 291 289 286 284 285 283 283 283 283 284 285 285 287 292 297 293 296 295 294 296 299 299
322 321 320 321 320 319 318 318 318 318 316 315 314 312 310 308 306 305 303 301 299 296 293 289 287 286 285 285 284 284 287 287 287 287 289 292 294 296 295 295 294 300 299
321 321 321 321 320 319 317 317 317 317 316 314 312 312 312 310 308 307 305 302 299 298 296 293 290 288 286 285 286 288 288 288 288 283 290 290 291 291 292 291 294 295 300
322 321 321 320 320 319 317 316 316 315 315 314 313 311 310 311 309 305 303 302 300 298 295 295 294 294 291 290 288 288 288 290 289 288 289 290 291 292 293 288 289 294 297
323 323 322 321 319 319 317 316 315 314 314 313 311 310 308 307 307 305 301 299 297 296 294 294 293 293 292 292 292 292 290 290 287 289 288 289 289 289 288 287 287 293 295
326 327 326 324 322 321 320 318 316 315 313 311 310 309 307 306 305 304 302 298 294 293 292 291 291 290 290 290 291 292 292 293 291 289 287 290 289 290 283 287 289 292 298
325 325 326 326 323 322 319 317 316 314 312 309 308 307 306 304 304 302 301 298 294 292 290 290 289 289 290 289 288 289 290 290 292 292 291 290 290 288 285 287 285 284 286
328 327 329 328 326 322 322 319 317 314 310 308 306 305 303 302 302 300 299 297 295 294 292 289 288 287 287 287 286 287 288 288 289 291 292 294 294 291 287 286 279 276 283
329 329 330 330 327 328 324 322 318 313 309 306 303 303 302 300 299 298 297 296 294 293 293 291 289 287 286 286 284 284 286 287 287 287 290 293 294 291 289 288 285 281 281
333 333 333 332 332 330 328 326 320 314 309 306 303 301 302 301 299 297 296 294 294 293 292 292 291 289 286 284 283 284 284 284 284 284 285 287 289 287 287 288 289 288 290
335 336 335 335 334 332 330 328 324 319 312 309 306 302 300 300 298 297 295 293 293 293 293 292 292 291 288 286 284 283 281 282 281 280 281 284 287 286 287 290 292 294 297
337 337 337 336 336 336 334 331 328 326 320 315 310 307 303 300 298 297 296 295 294 294 294 295 295 294 292 290 288 286 284 281 280 280 281 284 284 281 281 283 284 286 289
337 338 339 339 339 338 337 336 332 328 326 321 319 315 313 310 303 300 298 297 296 296 296 297 297 296 296 295 293 291 289 287 283 282 280 279 276 277 278 281 283 285 285
339 341 342 342 343 343 342 340 342 334 327 327 326 325 322 321 321 320 319 313 310 302 300 299 299 299 298 299 299 297 296 293 292 290 286 283 276 276 278 281 284 284 282
342 343 344 345 345 346 347 346 339 337 336 332 332 331 332 331 331 327 326 326 326 318 309 307 306 305 304 304 302 303 302 302 300 297 291 285 284 283 283 285 287 284 286
344 345 346 346 347 348 348 347 344 340 336 333 336 338 336 337 341 343 340 337 329 329 323 318 314 312 311 309 307 305 301 303 302 299 297 294 290 288 288 288 287 287 286
344 345 346 348 350 351 349 346 345 345 342 342 338 338 338 337 342 347 349 348 338 334 328 326 323 319 316 315 313 312 309 304 304 302 302 301 299 296 293 294 296 295 291
346 346 347 347 350 350 349 348 347 347 346 343 340 338 340 341 340 340 344 344 344 339 335 332 328 326 322 319 316 309 308 309 306 307 306 305 304 300 296 295 296 294 294
345 344 345 346 348 348 346 347 348 348 346 343 339 337 342 340 340 341 341 341 340 337 332 332 330 326 325 322 318 315 309 308 307 306 305 303 301 298 299 297 296 294 293
347 347 347 345 345 348 345 348 349 348 348 345 342 341 340 342 340 338 337 337 336 335 334 329 329 327 325 321 317 313 311 308 307 306 306 306 303 301 300 299 297 296 294
351 349 349 347 345 346 343 345 347 347 347 346 344 343 342 342 341 339 336 334 334 331 330 329 327 325 324 322 319 316 313 309 307 307 305 303 302 301 299 297 298 295 294
354 351 349 347 345 344 345 343 345 346 345 344 343 343 342 340 339 338 336 335 333 332 330 328 326 324 321 319 317 315 313 311 309 306 305 303 302 302 301 298 297 296 294
351 351 348 346 344 342 342 342 343 343 344 343 342 341 339 338 337 336 334 334 331 329 327 327 326 322 320 317 316 314 313 311 309 307 306 304 302 300 299 298 297 296 295
346 345 345 345 342 341 340 339 340 341 341 341 340 339 337 336 334 333 332 330 329 327 325 325 323 322 320 319 317 315 313 310 308 308 308 306 302 301 299 298 297 296 295